| time (UTC) | temp F | wind direction | speed MPH | gust MPH | rain 1hr in | rain 24hr in | rain mn in | humidity % | barometer mb |
| 20260906230057 | 63 | 272 | 3.0 | 6.0 | 0.00 | 0.05 | 0.02 | 75 | 1016.4 |
| 20260906224555 | 63 | 298 | 2.0 | 8.0 | 0.00 | 0.05 | 0.02 | 77 | 1016.6 |
| 20260906223104 | 63 | 309 | 5.0 | 8.0 | 0.00 | 0.05 | 0.02 | 78 | 1016.7 |
| 20260906221555 | 63 | 19 | 3.0 | 8.0 | 0.00 | 0.05 | 0.02 | 76 | 1016.7 |
| 20260906220054 | 63 | 63 | 6.0 | 9.0 | 0.00 | 0.05 | 0.02 | 76 | 1016.6 |
| 20260906214554 | 63 | 36 | 5.0 | 10.0 | 0.00 | 0.05 | 0.02 | 76 | 1016.7 |
| 20260906213052 | 63 | 33 | 5.0 | 11.0 | 0.00 | 0.05 | 0.02 | 75 | 1016.6 |
| 20260906211551 | 63 | 5 | 6.0 | 12.0 | 0.00 | 0.05 | 0.02 | 74 | 1016.6 |
| 20260906204558 | 63 | 24 | 8.0 | 14.0 | 0.00 | 0.05 | 0.02 | 76 | 1016.6 |
| 20260906203048 | 63 | 19 | 9.0 | 14.0 | 0.00 | 0.05 | 0.02 | 76 | 1016.7 |
| 20260906201551 | 63 | 20 | 8.0 | 15.0 | 0.00 | 0.05 | 0.02 | 76 | 1016.8 |
| 20260906200047 | 63 | 14 | 10.0 | 16.0 | 0.00 | 0.05 | 0.02 | 75 | 1016.9 |
| 20260906194602 | 63 | 35 | 9.0 | 15.0 | 0.00 | 0.05 | 0.02 | 74 | 1016.9 |
| 20260906193045 | 63 | 360 | 9.0 | 15.0 | 0.00 | 0.05 | 0.02 | 74 | 1016.9 |
| 20260906191545 | 63 | 38 | 11.0 | 17.0 | 0.00 | 0.05 | 0.02 | 72 | 1016.9 |
| 20260906190043 | 63 | 9 | 12.0 | 18.0 | 0.00 | 0.05 | 0.02 | 71 | 1016.9 |
| 20260906184539 | 63 | 40 | 13.0 | 18.0 | 0.00 | 0.05 | 0.02 | 72 | 1016.8 |
| 20260906183050 | 61 | 10 | 12.0 | 19.0 | 0.00 | 0.05 | 0.02 | 76 | 1017.1 |
| 20260906181538 | 60 | 49 | 10.0 | 15.0 | 0.01 | 0.05 | 0.02 | 85 | 1016.9 |
| 20260906180030 | 59 | 326 | 3.0 | 10.0 | 0.01 | 0.05 | 0.02 | 89 | 1017.5 |
| 20260906174524 | 58 | 47 | 8.0 | 16.0 | 0.01 | 0.05 | 0.02 | 89 | 1017.6 |
| 20260906173021 | 58 | 255 | 1.0 | 4.0 | 0.01 | 0.05 | 0.02 | 88 | 1018.6 |
| 20260906171521 | 58 | 19 | 0.0 | 3.0 | 0.00 | 0.04 | 0.01 | 86 | 1018.9 |
| 20260906170020 | 58 | 20 | 2.0 | 6.0 | 0.00 | 0.04 | 0.01 | 86 | 1018.7 |
| 20260906164519 | 58 | 43 | 5.0 | 10.0 | 0.00 | 0.04 | 0.01 | 87 | 1018.7 |
| 20260906163019 | 58 | 69 | 2.0 | 6.0 | 0.01 | 0.04 | 0.01 | 90 | 1018.7 |
| 20260906161535 | 57 | 19 | 1.0 | 5.0 | 0.01 | 0.04 | 0.01 | 90 | 1018.6 |
| 20260906160017 | 56 | 344 | 2.0 | 4.0 | 0.01 | 0.04 | 0.01 | 91 | 1018.6 |
| 20260906154514 | 55 | 324 | 2.0 | 8.0 | 0.01 | 0.04 | 0.01 | 89 | 1019.0 |
| 20260906153015 | 55 | 314 | 4.0 | 12.0 | 0.00 | 0.03 | 0.00 | 87 | 1019.2 |
| 20260906151518 | 55 | 315 | 5.0 | 15.0 | 0.00 | 0.03 | 0.00 | 87 | 1019.3 |
| 20260906150013 | 55 | 296 | 8.0 | 15.0 | 0.00 | 0.03 | 0.00 | 87 | 1019.2 |
| 20260906144514 | 55 | 294 | 10.0 | 19.0 | 0.00 | 0.03 | 0.00 | 84 | 1019.6 |
| 20260906143008 | 59 | 290 | 3.0 | 9.0 | 0.00 | 0.03 | 0.00 | 85 | 1019.6 |
| 20260906141510 | 58 | 32 | 7.0 | 11.0 | 0.00 | 0.03 | 0.00 | 86 | 1019.0 |
| 20260906140010 | 58 | 15 | 7.0 | 10.0 | 0.00 | 0.03 | 0.00 | 85 | 1019.2 |
| 20260906134505 | 58 | 291 | 3.0 | 8.0 | 0.00 | 0.06 | 0.00 | 85 | 1019.1 |
| 20260906133007 | 58 | 20 | 4.0 | 11.0 | 0.00 | 0.06 | 0.00 | 86 | 1018.7 |
| 20260906131701 | 57 | 59 | 6.0 | 11.0 | 0.00 | 0.06 | 0.00 | 86 | 1018.7 |
| 20260906124555 | 57 | 11 | 9.0 | 13.0 | 0.00 | 0.06 | 0.00 | 87 | 1019.1 |
| 20260906123102 | 57 | 37 | 10.0 | 15.0 | 0.00 | 0.06 | 0.00 | 87 | 1018.8 |
| 20260906121552 | 56 | 5 | 9.0 | 15.0 | 0.00 | 0.06 | 0.00 | 87 | 1018.9 |
| 20260906120053 | 56 | 360 | 8.0 | 12.0 | 0.00 | 0.06 | 0.00 | 87 | 1019.1 |
| 20260906114552 | 56 | 10 | 9.0 | 14.0 | 0.00 | 0.06 | 0.00 | 87 | 1019.3 |
| 20260906113049 | 56 | 355 | 9.0 | 16.0 | 0.00 | 0.06 | 0.00 | 86 | 1019.1 |
| 20260906111549 | 56 | 360 | 10.0 | 15.0 | 0.00 | 0.06 | 0.00 | 85 | 1019.2 |
| 20260906110046 | 56 | 341 | 9.0 | 16.0 | 0.00 | 0.06 | 0.00 | 84 | 1019.1 |
| 20260906104546 | 57 | 10 | 12.0 | 16.0 | 0.00 | 0.06 | 0.00 | 84 | 1019.1 |
| 20260906103048 | 57 | 342 | 9.0 | 13.0 | 0.00 | 0.06 | 0.00 | 84 | 1019.3 |
| 20260906101546 | 57 | 360 | 8.0 | 14.0 | 0.00 | 0.06 | 0.00 | 84 | 1019.4 |
| 20260906100043 | 57 | 340 | 7.0 | 14.0 | 0.00 | 0.06 | 0.00 | 85 | 1019.4 |
| 20260906094550 | 57 | 355 | 12.0 | 19.0 | 0.00 | 0.06 | 0.00 | 85 | 1019.3 |
| 20260906093038 | 57 | 337 | 9.0 | 17.0 | 0.00 | 0.06 | 0.00 | 84 | 1019.5 |
| 20260906091538 | 57 | 315 | 5.0 | 12.0 | 0.00 | 0.06 | 0.00 | 83 | 1019.6 |
| 20260906090048 | 58 | 11 | 10.0 | 19.0 | 0.00 | 0.06 | 0.00 | 83 | 1019.8 |
| 20260906084536 | 56 | 276 | 12.0 | 17.0 | 0.00 | 0.06 | 0.00 | 86 | 1020.1 |
| 20260906083037 | 57 | 343 | 7.0 | 16.0 | 0.00 | 0.06 | 0.00 | 84 | 1020.1 |
| 20260906081532 | 57 | 5 | 7.0 | 14.0 | 0.00 | 0.06 | 0.00 | 84 | 1019.9 |
| 20260906080038 | 57 | 355 | 8.0 | 11.0 | 0.00 | 0.06 | 0.00 | 84 | 1019.8 |
| 20260906074532 | 57 | 5 | 9.0 | 14.0 | 0.00 | 0.06 | 0.00 | 84 | 1019.8 |
| 20260906073027 | 57 | 341 | 6.0 | 10.0 | 0.00 | 0.06 | 0.00 | 84 | 1019.9 |
| 20260906071528 | 58 | 360 | 11.0 | 18.0 | 0.00 | 0.06 | 0.00 | 83 | 1019.9 |
| 20260906070024 | 58 | 350 | 11.0 | 14.0 | 0.00 | 0.06 | 0.00 | 83 | 1020.2 |
| 20260906064522 | 58 | 331 | 8.0 | 13.0 | 0.00 | 0.06 | 0.00 | 84 | 1020.7 |
| 20260906063020 | 58 | 360 | 8.0 | 16.0 | 0.00 | 0.06 | 0.00 | 84 | 1020.6 |
| 20260906061517 | 57 | 348 | 11.0 | 17.0 | 0.00 | 0.06 | 0.00 | 84 | 1020.4 |
| 20260906060020 | 57 | 342 | 12.0 | 16.0 | 0.00 | 0.06 | 0.00 | 84 | 1020.5 |
| 20260906054513 | 56 | 355 | 8.0 | 15.0 | 0.01 | 0.06 | 0.06 | 84 | 1020.6 |
| 20260906053013 | 56 | 346 | 12.0 | 17.0 | 0.01 | 0.06 | 0.06 | 84 | 1020.4 |
| 20260906051515 | 56 | 360 | 11.0 | 17.0 | 0.01 | 0.06 | 0.06 | 82 | 1020.4 |
| 20260906050011 | 56 | 360 | 12.0 | 19.0 | 0.01 | 0.06 | 0.06 | 82 | 1020.2 |
| 20260906044513 | 57 | 360 | 10.0 | 17.0 | 0.00 | 0.05 | 0.05 | 82 | 1020.6 |
| 20260906043021 | 57 | 5 | 14.0 | 21.0 | 0.00 | 0.05 | 0.05 | 83 | 1020.0 |
| 20260906041508 | 57 | 355 | 12.0 | 21.0 | 0.02 | 0.05 | 0.05 | 83 | 1019.6 |
| 20260906040008 | 57 | 360 | 13.0 | 18.0 | 0.02 | 0.05 | 0.05 | 82 | 1019.8 |
| 20260906034507 | 58 | 360 | 14.0 | 19.0 | 0.02 | 0.05 | 0.05 | 81 | 1020.1 |
| 20260906033006 | 59 | 355 | 6.0 | 16.0 | 0.01 | 0.04 | 0.04 | 76 | 1020.7 |
| 20260906031505 | 60 | 309 | 4.0 | 17.0 | 0.00 | 0.03 | 0.03 | 68 | 1021.3 |
| 20260906030004 | 60 | 341 | 16.0 | 27.0 | 0.00 | 0.03 | 0.03 | 67 | 1019.3 |
| 20260906024502 | 60 | 10 | 17.0 | 22.0 | 0.00 | 0.03 | 0.03 | 67 | 1019.0 |
| 20260906023003 | 60 | 360 | 15.0 | 24.0 | 0.00 | 0.03 | 0.03 | 67 | 1018.7 |
| 20260906021603 | 61 | 10 | 15.0 | 23.0 | 0.00 | 0.03 | 0.03 | 66 | 1018.7 |
| 20260906020059 | 62 | 9 | 12.0 | 19.0 | 0.00 | 0.03 | 0.03 | 64 | 1018.8 |
| 20260906014559 | 63 | 15 | 13.0 | 18.0 | 0.00 | 0.03 | 0.03 | 62 | 1018.7 |
| 20260906013059 | 64 | 9 | 11.0 | 16.0 | 0.00 | 0.03 | 0.03 | 60 | 1018.6 |
| 20260906011559 | 65 | 5 | 11.0 | 16.0 | 0.00 | 0.03 | 0.03 | 58 | 1018.5 |
| 20260906010139 | 66 | 360 | 11.0 | 17.0 | 0.00 | 0.03 | 0.03 | 57 | 1018.6 |
| 20260906004614 | 66 | 19 | 13.0 | 19.0 | 0.00 | 0.03 | 0.03 | 56 | 1018.7 |
| 20260906003056 | 67 | 5 | 13.0 | 19.0 | 0.00 | 0.03 | 0.03 | 54 | 1018.8 |
| 20260906001603 | 69 | 20 | 13.0 | 21.0 | 0.00 | 0.03 | 0.03 | 53 | 1018.7 |
| 20260906000056 | 70 | 37 | 12.0 | 19.0 | 0.00 | 0.03 | 0.03 | 51 | 1018.7 |
| 20260905234555 | 70 | 26 | 11.0 | 16.0 | 0.00 | 0.03 | 0.03 | 50 | 1019.0 |
| 20260905233055 | 71 | 5 | 9.0 | 14.0 | 0.00 | 0.03 | 0.03 | 48 | 1018.9 |
| 20260905231556 | 71 | 32 | 5.0 | 12.0 | 0.00 | 0.03 | 0.03 | 48 | 1018.9 |